"Pseudo-MPEC" for C2UULF2

Created 2020 May 24 11:07:07 UT using Find_Orb

Click here for an explanation of pseudo-MPECs

 
 Astrometry: 
     C2UULF2  C2020 05 21wIGoaV+xttjeI^@:eAE0?4eY,o)xk59o\/Vl:.@hR,kj_0G*@Ar_F52
     C2UULF2  C2020 05 21T$T]#q)8dxOs.ugp/HHTm(9#)CwJo]XtkQEC'wLT+HB!d+#f`pHyF52
     C2UULF2  C2020 05 23.30877 15 05 22.95 +00 39 28.4    ~5N87 20.9 GVNEOCPG96
     C2UULF2  C2020 05 23.31391 15 05 26.75 +00 39 13.2    ~5N87 21.1 GVNEOCPG96
     C2UULF2  C2020 05 23.31905 15 05 30.50 +00 38 57.2    ~5N87 20.7 GVNEOCPG96
     C2UULF2  C2020 05 23.32418 15 05 34.34 +00 38 42.7    ~5N87 21.2 GVNEOCPG96
     C2UULF2  C2020 05 23.37709 15 06 13.41 +00 36 05.3    ~5N9b 21.4 GVNEOCPI52
     C2UULF2  C2020 05 23.37996 15 06 15.54 +00 35 56.9    ~5N9b 20.7 GVNEOCPI52
     C2UULF2  C2020 05 23.38283 15 06 17.68 +00 35 48.3    ~5N9b 20.2 GVNEOCPI52
     C2UULF2  C2020 05 23.38569 15 06 19.77 +00 35 40.0    ~5N9b 21.1 GVNEOCPI52
     C2UULF2  C2020 05 23MQw%Vlb4@-*K$)I+u9eC[@agD''nOv[W!Astrometryk$=YD$dJ(F52
     C2UULF2  C2020 05 23msgNn'9lbZ-)X5dkS#xtX%yvO'CHoKpve8yJv19`71+:?bq=hFOmF52
     C2UULF2  C2020 05 23EKBIDOtredacted;;click%91rl[H#Nb;`n/%VZvxLl%Qhhere`TF52
     C2UULF2  C2020 05 2335O(;h9g5O58#w-cEpB!Q?T1EFkPfor4Q+!fZ)explanation[wHF52
     C2UULF2 KC2020 05 247L]*O57mZbi\m.6$-6o^JiLA#/%,%q2UQF/2.xH!a8ZHN),R*OXKH21
     C2UULF2 KC2020 05 24RBM2N,);I^WT^ffmhnY((.24;dMgpon(x!e9$#pXb6yU.A#h,p0^H21
     C2UULF2  C2020 05 24.41480 15 19 14.37 -00 13 42.0    ~5OAM 20.9 GVNEOCPI52
     C2UULF2  C2020 05 24.41671 15 19 15.73 -00 13 47.7    ~5OAM 20.4 GVNEOCPI52
     C2UULF2  C2020 05 24.41862 15 19 17.05 -00 13 52.9    ~5OAM 20.9 GVNEOCPI52
     C2UULF2  C2020 05 24.42054 15 19 18.42 -00 13 58.6    ~5OAM 20.7 GVNEOCPI52

Station data:
(F52) Pan-STARRS 2, Haleakala  (N20.707384 W156.255910)  US/Hawaii. 1.8-m
   Ritchey-Chrétien + CCD.
(G96) Mt. Lemmon Survey  (N32.442754 W110.788720)  US/Arizona.  Observers T.
   A. Pruyne, B. M. Africano, E. J. Christensen, G. A. Farneth, D. C. Fuls,
   A. R. Gibbs, A. D. Grauer, H. Gröller, J. A. Johnson, R. A. Kowalski, S.
   M. Larson, G. J. Leonard, D. Rankin, R. L. Seaman, F. C. Shelly. 1.5-m
   reflector + 10K CCD.
(H21) Astronomical Research Observatory, Westfield  (N39.483057 W87.968270)
   US/Illinois. 0.76-m f/3.0 astrograph + CCD.
(I52) Steward Observatory, Mt. Lemmon Station  (N32.442547 W110.788920)
   US/Arizona.  Observers T. A. Pruyne, B. M. Africano, E. J. Christensen, G.
   A. Farneth, D. C. Fuls, A. R. Gibbs, A. D. Grauer, H. Gröller, J. A.
   Johnson, R. A. Kowalski, S. M. Larson, G. J. Leonard, D. Rankin, R. L.
   Seaman, F. C. Shelly. 1.0-m reflector + CCD.

Orbital elements:  C2UULF2
   Perihelion 2020 Apr 28.850932 +/- 0.012 TT = 20:25:20 (JD 2458968.350932)
Epoch 2020 May 24.0 TT = JDT 2458993.5   Earth MOID: 0.0239   Ma: 0.0990
M   9.54704350 +/- 0.040            (J2000 ecliptic)          AutoNEOCP
n   0.37961818 +/- 0.00143          Peri.  356.55551 +/- 0.016
a   1.88902647 +/- 0.00475          Node   217.67798 +/- 0.012
e   0.4546887 +/- 0.00133           Incl.    2.38685 +/- 0.0048
P   2.60/948.30d           H 25.9   G  0.15   U  8.3  
q 1.03010741 +/- 7.1e-5    Q 2.74794554 +/- 0.00945
From 20 observations 2020 May 21-24; mean residual 0".26
Residuals in arcseconds: 
200521 F52  .06+  .02+    200523 I52  .04+  .01-    200524 H21  .11-  .10+    
200521 F52  .08-  .03-    200523 I52  .15+  .10-    200524 H21  .01+  .13+    
200523 G96  .00   .03+    200523 I52  .41-  .08+    200524 I52  .43-  .21+    
200523 G96  .25+  .12+    200523 F52  .05+  .03+    200524 I52  .08+  .16-    
200523 G96  .26-  .60-    200523 F52  .03+  .12+    200524 I52  .01-  .03-    
200523 G96  .66+  .16+    200523 F52  .22+  .08-    200524 I52  .53+  .38-    
200523 I52  .06+  .12-    200523 F52  .83-  .33+    

Ephemerides (geocentric):
Date (UTC) HH   RA              Dec         delta   r     elong  mag " sig PA
---- -- -- --  -------------   -----------  ------ ------ -----  --- ---- ---
2020 05 24 11  15 19 52.096   -00 14 28.08  .06234 1.0703 156.5 21.1 .231  28
2020 05 24 12  15 20 22.157   -00 16 24.12  .06244 1.0704 156.6 21.1 .231  28
2020 05 24 13  15 20 52.124   -00 18 19.86  .06254 1.0706 156.7 21.1 .231  28
2020 05 24 14  15 21 21.997   -00 20 15.32  .06265 1.0707 156.7 21.1 .231  27
2020 05 24 15  15 21 51.776   -00 22 10.48  .06275 1.0708 156.8 21.1 .232  27
2020 05 24 16  15 22 21.461   -00 24 05.36  .06285 1.0709 156.8 21.1 .232  27
2020 05 24 17  15 22 51.052   -00 25 59.94  .06295 1.0711 156.9 21.1 .232  26
2020 05 24 18  15 23 20.549   -00 27 54.23  .06306 1.0712 157.0 21.1 .232  26
2020 05 24 19  15 23 49.952   -00 29 48.22  .06316 1.0713 157.0 21.1 .232  26
2020 05 24 20  15 24 19.262   -00 31 41.93  .06327 1.0714 157.1 21.1 .232  25
2020 05 24 21  15 24 48.479   -00 33 35.34  .06337 1.0716 157.1 21.1 .232  25
2020 05 24 22  15 25 17.603   -00 35 28.46  .06348 1.0717 157.2 21.1 .232  24
2020 05 24 23  15 25 46.633   -00 37 21.28  .06358 1.0718 157.2 21.1 .232  24
2020 05 25 00  15 26 15.570   -00 39 13.82  .06369 1.0720 157.3 21.1 .232  23
2020 05 25 01  15 26 44.415   -00 41 06.05  .06380 1.0721 157.4 21.2 .232  23
2020 05 25 02  15 27 13.167   -00 42 58.00  .06390 1.0722 157.4 21.2 .232  22
2020 05 25 03  15 27 41.827   -00 44 49.65  .06401 1.0723 157.5 21.2 .231  22
2020 05 25 04  15 28 10.394   -00 46 41.01  .06412 1.0725 157.5 21.2 .231  21
2020 05 25 05  15 28 38.870   -00 48 32.07  .06422 1.0726 157.6 21.2 .231  21
2020 05 25 06  15 29 07.253   -00 50 22.84  .06433 1.0727 157.6 21.2 .231  20
2020 05 25 07  15 29 35.545   -00 52 13.31  .06444 1.0729 157.7 21.2 .231  20
2020 05 25 08  15 30 03.745   -00 54 03.49  .06455 1.0730 157.7 21.2 .231  19
2020 05 25 09  15 30 31.853   -00 55 53.38  .06466 1.0731 157.8 21.2 .230  19
2020 05 25 10  15 30 59.870   -00 57 42.97  .06477 1.0733 157.8 21.2 .230  18
2020 05 25 11  15 31 27.796   -00 59 32.27  .06488 1.0734 157.9 21.2 .230  17
2020 05 25 12  15 31 55.631   -01 01 21.28  .06499 1.0735 157.9 21.2 .230  17
2020 05 25 13  15 32 23.376   -01 03 09.99  .06510 1.0737 158.0 21.2 .230  16
2020 05 25 14  15 32 51.029   -01 04 58.41  .06521 1.0738 158.0 21.2 .229  16
2020 05 25 15  15 33 18.593   -01 06 46.53  .06532 1.0739 158.1 21.2 .229  15
2020 05 25 16  15 33 46.066   -01 08 34.36  .06543 1.0740 158.1 21.2 .229  14
2020 05 25 17  15 34 13.449   -01 10 21.90  .06554 1.0742 158.2 21.2 .229  14
2020 05 25 18  15 34 40.742   -01 12 09.14  .06565 1.0743 158.2 21.2 .228  13
2020 05 25 19  15 35 07.946   -01 13 56.09  .06577 1.0744 158.3 21.2 .228  12
2020 05 25 20  15 35 35.060   -01 15 42.75  .06588 1.0746 158.3 21.2 .228  11
2020 05 25 21  15 36 02.085   -01 17 29.11  .06599 1.0747 158.4 21.2 .228  11
2020 05 25 22  15 36 29.020   -01 19 15.18  .06611 1.0748 158.4 21.2 .228  10
2020 05 25 23  15 36 55.867   -01 21 00.96  .06622 1.0750 158.5 21.2 .228   9
2020 05 26 00  15 37 22.625   -01 22 46.45  .06633 1.0751 158.5 21.2 .228   9
2020 05 26 01  15 37 49.295   -01 24 31.65  .06645 1.0752 158.6 21.2 .227   8
2020 05 26 02  15 38 15.877   -01 26 16.55  .06656 1.0754 158.6 21.2 .227   7
2020 05 26 03  15 38 42.370   -01 28 01.16  .06668 1.0755 158.7 21.2 .227   6
2020 05 26 04  15 39 08.776   -01 29 45.49  .06679 1.0756 158.7 21.2 .227   5
2020 05 26 05  15 39 35.093   -01 31 29.52  .06691 1.0758 158.8 21.2 .227   5
2020 05 26 06  15 40 01.324   -01 33 13.26  .06702 1.0759 158.8 21.2 .227   4
2020 05 26 07  15 40 27.467   -01 34 56.71  .06714 1.0760 158.9 21.2 .227   3
2020 05 26 08  15 40 53.523   -01 36 39.87  .06726 1.0762 158.9 21.2 .227   2
2020 05 26 09  15 41 19.492   -01 38 22.74  .06737 1.0763 158.9 21.2 .228   1
2020 05 26 10  15 41 45.375   -01 40 05.32  .06749 1.0764 159.0 21.2 .228   0